Weather History for KBQK - February, 2013

Change the Weather History Date:

Wednesday, February 27, 2013

  Actual Average Record
Temperature  
Mean Temperature 58 °F -  
Max Temperature 62 °F 66 °F 86 °F (1985)
Min Temperature 53 °F 42 °F 24 °F (1974)
Degree Days  
Heating Degree Days 8    
Growing Degree Days 8 (Base 50)    
Moisture  
Dew Point 46 °F    
Average Humidity 64    
Maximum Humidity 88    
Minimum Humidity 48    
Precipitation  
Precipitation 0.00 in - - ()
Sea Level Pressure  
Sea Level Pressure 29.91 in    
Wind  
Wind Speed 10 mph (West)    
Max Wind Speed 15 mph    
Max Gust Speed 22 mph    
Visibility 10 miles    
Events      
Averages and records for this station are not official NWS values.
T = Trace of Precipitation, MM = Missing Value Source: NWS Daily Summary

Daily Weather History Graph

Daily Weather History Graph

Search for Another Location

Airport or City:

Trip Planner

Search our weather history database for the weather conditions in past years. The results will help you decide how hot, cold, wet, or windy it might be!

Date:

Astronomy

Feb. 27, 2013 Rise Set
Actual Time 6:54 AM EST 6:22 PM EST
Civil Twilight 6:30 AM EST 6:47 PM EST
Nautical Twilight 6:02 AM EST 7:15 PM EST
Astronomical Twilight 5:34 AM EST 7:43 PM EST
Moon 8:29 PM EST (2/27) 7:39 AM EST (2/27)
Length of Visible Light 12h 17m
Length of Day
11h 28m
Waning Gibbous, 96% of the Moon is Illuminated
Feb 27
Waning Gibbous
Mar 4
Last Quarter
Mar 11
New
Mar 19
First Quarter
Mar 27
Full

Hourly Weather History & Observations

Time (EST) Temp. Dew Point Humidity Pressure Visibility Wind Dir Wind Speed Gust Speed Precip Events Conditions
12:15 AM 62.6 °F 53.6 °F 72% 29.82 in 10.0 mi WSW 13.8 mph 21.9 mph N/A   Clear
12:35 AM 62.6 °F 53.6 °F 72% 29.82 in 10.0 mi WSW 15.0 mph 18.4 mph N/A   Clear
12:55 AM 60.8 °F 53.6 °F 77% 29.83 in 10.0 mi WSW 12.7 mph 18.4 mph N/A   Clear
1:15 AM 60.8 °F 53.6 °F 77% 29.84 in 10.0 mi WSW 10.4 mph 17.3 mph N/A   Clear
1:35 AM 60.8 °F 51.8 °F 72% 29.85 in 10.0 mi WSW 12.7 mph 19.6 mph N/A   Clear
1:55 AM 60.8 °F 51.8 °F 72% 29.84 in 10.0 mi WSW 11.5 mph 20.7 mph N/A   Clear
2:15 AM 60.8 °F 51.8 °F 72% 29.85 in 10.0 mi WSW 11.5 mph 17.3 mph N/A   Clear
2:35 AM 60.8 °F 51.8 °F 72% 29.85 in 10.0 mi West 10.4 mph - N/A   Clear
2:55 AM 59.0 °F 51.8 °F 77% 29.85 in 10.0 mi West 10.4 mph 16.1 mph N/A   Clear
3:15 AM 59.0 °F 51.8 °F 77% 29.85 in 10.0 mi West 11.5 mph - N/A   Clear
3:35 AM 59.0 °F 51.8 °F 77% 29.85 in 10.0 mi West 10.4 mph - N/A   Clear
3:55 AM 59.0 °F 51.8 °F 77% 29.86 in 10.0 mi West 8.1 mph - N/A   Clear
4:15 AM 57.2 °F 50.0 °F 77% 29.87 in 10.0 mi West 8.1 mph 16.1 mph N/A   Clear
4:35 AM 57.2 °F 50.0 °F 77% 29.87 in 10.0 mi West 8.1 mph - N/A   Clear
4:55 AM 55.4 °F 50.0 °F 82% 29.88 in 10.0 mi West 5.8 mph - N/A   Clear
5:15 AM 55.4 °F 50.0 °F 82% 29.88 in 10.0 mi West 5.8 mph - N/A   Clear
5:35 AM 55.4 °F 50.0 °F 82% 29.90 in 10.0 mi West 4.6 mph - N/A   Clear
5:55 AM 53.6 °F 50.0 °F 88% 29.90 in 10.0 mi WSW 4.6 mph - N/A   Clear
6:15 AM 53.6 °F 50.0 °F 88% 29.90 in 10.0 mi West 4.6 mph - N/A   Clear
6:35 AM 55.4 °F 50.0 °F 82% 29.90 in 10.0 mi WNW 8.1 mph - N/A   Clear
6:55 AM 53.6 °F 44.6 °F 72% 29.91 in 10.0 mi WNW 8.1 mph - N/A   Clear
7:15 AM 53.6 °F 42.8 °F 67% 29.91 in 10.0 mi West 6.9 mph - N/A   Clear
7:35 AM 53.6 °F 42.8 °F 67% 29.93 in 10.0 mi WNW 6.9 mph - N/A   Clear
7:55 AM 53.6 °F 44.6 °F 72% 29.94 in 10.0 mi WNW 6.9 mph - N/A   Clear
8:15 AM 53.6 °F 42.8 °F 67% 29.95 in 10.0 mi WNW 9.2 mph 17.3 mph N/A   Clear
8:35 AM 53.6 °F 42.8 °F 67% 29.95 in 10.0 mi West 10.4 mph - N/A   Clear
8:55 AM 53.6 °F 41.0 °F 62% 29.96 in 10.0 mi WNW 8.1 mph - N/A   Clear
9:15 AM 53.6 °F 41.0 °F 62% 29.97 in 10.0 mi WNW 10.4 mph - N/A   Clear
9:35 AM 55.4 °F 41.0 °F 58% 29.98 in 10.0 mi West 10.4 mph - N/A   Clear
9:55 AM 55.4 °F 41.0 °F 58% 29.98 in 10.0 mi WNW 5.8 mph - N/A   Clear
10:15 AM 55.4 °F 41.0 °F 58% 29.97 in 10.0 mi WNW 10.4 mph - N/A   Clear
10:35 AM 55.4 °F 42.8 °F 63% 29.97 in 10.0 mi West 6.9 mph - N/A   Clear
10:55 AM 57.2 °F 41.0 °F 55% 29.98 in 10.0 mi WNW 6.9 mph - N/A   Clear
11:15 AM 57.2 °F 42.8 °F 59% 29.98 in 10.0 mi WSW 9.2 mph - N/A   Clear
11:35 AM 59.0 °F 42.8 °F 55% 29.97 in 10.0 mi WSW 8.1 mph - N/A   Clear
11:55 AM 59.0 °F 41.0 °F 51% 29.96 in 10.0 mi WSW 11.5 mph - N/A   Clear
12:15 PM 59.0 °F 41.0 °F 51% 29.96 in 10.0 mi West 8.1 mph - N/A   Clear
12:35 PM 60.8 °F 42.8 °F 52% 29.96 in 10.0 mi WSW 9.2 mph - N/A   Clear
12:55 PM 60.8 °F 42.8 °F 52% 29.94 in 10.0 mi WSW 9.2 mph - N/A   Clear
1:15 PM 60.8 °F 42.8 °F 52% 29.94 in 10.0 mi WSW 11.5 mph - N/A   Clear
1:35 PM 60.8 °F 42.8 °F 52% 29.93 in 10.0 mi WSW 8.1 mph - N/A   Clear
1:55 PM 62.6 °F 42.8 °F 48% 29.93 in 10.0 mi WSW 15.0 mph - N/A   Clear
2:15 PM 62.6 °F 42.8 °F 48% 29.93 in 10.0 mi WSW 10.4 mph - N/A   Clear
2:35 PM 62.6 °F 44.6 °F 52% 29.92 in 10.0 mi WSW 11.5 mph - N/A   Clear
2:55 PM 62.6 °F 42.8 °F 48% 29.91 in 10.0 mi WSW 10.4 mph - N/A   Clear
3:15 PM 62.6 °F 42.8 °F 48% 29.91 in 10.0 mi WSW 11.5 mph - N/A   Clear
3:35 PM 62.6 °F 42.8 °F 48% 29.90 in 10.0 mi West 8.1 mph - N/A   Clear
3:55 PM 62.6 °F 44.6 °F 52% 29.90 in 10.0 mi West 10.4 mph 16.1 mph N/A   Clear
4:15 PM 62.6 °F 42.8 °F 48% 29.90 in 10.0 mi West 8.1 mph - N/A   Clear
4:35 PM 62.6 °F 42.8 °F 48% 29.90 in 10.0 mi West 8.1 mph - N/A   Clear
4:55 PM 62.6 °F 44.6 °F 52% 29.90 in 10.0 mi WSW 6.9 mph - N/A   Clear
5:15 PM 62.6 °F 44.6 °F 52% 29.90 in 10.0 mi WSW 9.2 mph - N/A   Clear
5:35 PM 60.8 °F 44.6 °F 55% 29.90 in 10.0 mi West 8.1 mph - N/A   Clear
5:55 PM 60.8 °F 44.6 °F 55% 29.90 in 10.0 mi West 5.8 mph - N/A   Clear
6:15 PM 59.0 °F 44.6 °F 59% 29.90 in 10.0 mi WSW 5.8 mph - N/A   Clear
6:35 PM 59.0 °F 44.6 °F 59% 29.91 in 10.0 mi WSW 4.6 mph - N/A   Clear
6:55 PM 59.0 °F 46.4 °F 63% 29.91 in 10.0 mi WSW 6.9 mph - N/A   Clear
7:15 PM 59.0 °F 46.4 °F 63% 29.92 in 10.0 mi West 5.8 mph - N/A   Clear
7:35 PM 59.0 °F 44.6 °F 59% 29.92 in 10.0 mi WSW 8.1 mph - N/A   Clear
7:55 PM 57.2 °F 44.6 °F 63% 29.92 in 10.0 mi WSW 8.1 mph - N/A   Clear
8:15 PM 55.4 °F 44.6 °F 67% 29.92 in 10.0 mi WSW 6.9 mph - N/A   Clear
8:35 PM 55.4 °F 44.6 °F 67% 29.93 in 10.0 mi WSW 8.1 mph - N/A   Clear
8:55 PM 55.4 °F 44.6 °F 67% 29.93 in 10.0 mi West 6.9 mph - N/A   Clear
9:15 PM 55.4 °F 44.6 °F 67% 29.93 in 10.0 mi WSW 8.1 mph - N/A   Clear
9:35 PM 55.4 °F 44.6 °F 67% 29.93 in 10.0 mi WSW 8.1 mph - N/A   Clear
9:55 PM 55.4 °F 44.6 °F 67% 29.94 in 10.0 mi WSW 9.2 mph - N/A   Clear
10:15 PM 55.4 °F 44.6 °F 67% 29.94 in 10.0 mi WSW 8.1 mph - N/A   Clear
10:35 PM 55.4 °F 44.6 °F 67% 29.94 in 10.0 mi WSW 8.1 mph - N/A   Clear
10:55 PM 55.4 °F 44.6 °F 67% 29.93 in 10.0 mi WSW 8.1 mph - N/A   Clear
11:15 PM 53.6 °F 44.6 °F 72% 29.93 in 10.0 mi West 8.1 mph - N/A   Clear
11:35 PM 55.4 °F 44.6 °F 67% 29.94 in 10.0 mi West 9.2 mph - N/A   Clear
11:55 PM 55.4 °F 44.6 °F 67% 29.93 in 10.0 mi West 6.9 mph - N/A   Clear